RYR63FM LEMD-GCLP

Flight info

Callsign RYR63FM
Flight time 2h 41m
Altitude 35000
Route VTB DCT INPAN DCT CRISA DCT HIJ DCT SVL DCT CLANA DCT KORNO/N0442F370 UN857 TERTO
Aircraft B738/M-SDFGILRWY/SB1

Departure

Time 2026-04-30 11:33
Airport Adolfo Suárez Madrid–Barajas Airport (LEMD)

Arrival

Time 2026-04-30 14:14
Airport Gran Canaria Airport (GCLP)
Time Latitude Longitude Altitude Speed Heading
2026-04-30 10:54 40.46859 -3.56772 1964 ft 0 kts 326°
2026-04-30 11:18 40.46843 -3.56758 1964 ft 2 kts 326°
2026-04-30 11:18 40.46831 -3.56747 1964 ft 2 kts 326°
2026-04-30 11:19 40.46818 -3.56737 1964 ft 2 kts 326°
2026-04-30 11:19 40.46806 -3.56725 1964 ft 2 kts 326°
2026-04-30 11:19 40.46793 -3.56714 1964 ft 2 kts 326°
2026-04-30 11:19 40.46781 -3.56703 1964 ft 2 kts 326°
2026-04-30 11:20 40.46769 -3.56692 1964 ft 2 kts 326°
2026-04-30 11:20 40.46756 -3.56682 1964 ft 2 kts 326°
2026-04-30 11:20 40.46743 -3.56670 1964 ft 2 kts 326°
2026-04-30 11:20 40.46734 -3.56665 1964 ft 0 kts 360°
2026-04-30 11:21 40.46726 -3.56666 1964 ft 0 kts
2026-04-30 11:26 40.46742 -3.56665 1964 ft 5 kts
2026-04-30 11:26 40.46799 -3.56649 1964 ft 11 kts 41°
2026-04-30 11:27 40.46808 -3.56554 1964 ft 12 kts 93°
2026-04-30 11:27 40.46845 -3.56463 1964 ft 13 kts
2026-04-30 11:27 40.46962 -3.56454 1964 ft 20 kts
2026-04-30 11:27 40.47116 -3.56489 1964 ft 23 kts 335°
2026-04-30 11:28 40.47424 -3.56783 1965 ft 29 kts 321°
2026-04-30 11:28 40.47591 -3.56955 1965 ft 28 kts 321°
2026-04-30 11:28 40.47748 -3.57114 1965 ft 24 kts 322°
2026-04-30 11:29 40.47887 -3.57257 1965 ft 25 kts 321°
2026-04-30 11:29 40.48028 -3.57399 1965 ft 28 kts 321°
2026-04-30 11:29 40.48336 -3.57712 1965 ft 25 kts 322°
2026-04-30 11:30 40.48632 -3.57932 1965 ft 27 kts 353°
2026-04-30 11:30 40.48814 -3.57936 1965 ft 15 kts
2026-04-30 11:30 40.48858 -3.57842 1965 ft 14 kts 90°
2026-04-30 11:31 40.48893 -3.57730 1965 ft 14 kts
2026-04-30 11:31 40.49022 -3.57729 1965 ft 22 kts 359°
2026-04-30 11:31 40.49160 -3.57718 1965 ft 15 kts 35°
2026-04-30 11:31 40.49194 -3.57578 1965 ft 19 kts 65°
2026-04-30 11:32 40.49255 -3.57459 1965 ft 4 kts
2026-04-30 11:32 40.49320 -3.57461 1965 ft 19 kts 359°
2026-04-30 11:32 40.49690 -3.57464 1965 ft 85 kts 359°
2026-04-30 11:33 40.51618 -3.57473 1972 ft 185 kts 360°
2026-04-30 11:33 40.52890 -3.57479 2568 ft 182 kts 359°
2026-04-30 11:33 40.54153 -3.57485 3180 ft 184 kts 359°
2026-04-30 11:33 40.55454 -3.57467 3640 ft 192 kts
2026-04-30 11:34 40.56799 -3.57030 3923 ft 209 kts 20°
2026-04-30 11:34 40.58222 -3.56375 4248 ft 225 kts 19°
2026-04-30 11:34 40.59776 -3.55737 4611 ft 241 kts 17°
2026-04-30 11:34 40.61392 -3.55129 5166 ft 247 kts 15°
2026-04-30 11:35 40.63103 -3.54503 5559 ft 261 kts 14°
2026-04-30 11:35 40.64912 -3.54078 6115 ft 268 kts
2026-04-30 11:35 40.66778 -3.53893 6716 ft 272 kts
2026-04-30 11:35 40.68666 -3.53732 7364 ft 274 kts
2026-04-30 11:36 40.70490 -3.53011 7936 ft 278 kts 32°
2026-04-30 11:36 40.71881 -3.51280 8512 ft 281 kts 54°
2026-04-30 11:36 40.72957 -3.49123 9114 ft 284 kts 58°
2026-04-30 11:36 40.73997 -3.46912 9695 ft 288 kts 58°
2026-04-30 11:37 40.75078 -3.44695 10285 ft 291 kts 57°
2026-04-30 11:37 40.76041 -3.42314 10882 ft 293 kts 70°
2026-04-30 11:37 40.76422 -3.39708 11442 ft 295 kts 94°
2026-04-30 11:37 40.75934 -3.37128 12008 ft 294 kts 118°
2026-04-30 11:38 40.74792 -3.34882 12612 ft 295 kts 130°
2026-04-30 11:38 40.73526 -3.32748 13116 ft 302 kts 130°
2026-04-30 11:38 40.72160 -3.30583 13393 ft 316 kts 136°
2026-04-30 11:38 40.70400 -3.28779 13642 ft 328 kts 156°
2026-04-30 11:39 40.68205 -3.27895 13933 ft 337 kts 175°
2026-04-30 11:39 40.65810 -3.27959 14303 ft 345 kts 189°
2026-04-30 11:39 40.63431 -3.28376 14891 ft 350 kts 190°
2026-04-30 11:39 40.61008 -3.28803 15524 ft 353 kts 189°
2026-04-30 11:40 40.58556 -3.29224 16142 ft 356 kts 189°
2026-04-30 11:40 40.56091 -3.29641 16748 ft 360 kts 189°
2026-04-30 11:40 40.53626 -3.30054 17356 ft 362 kts 189°
2026-04-30 11:40 40.51130 -3.30470 17959 ft 364 kts 189°
2026-04-30 11:41 40.48583 -3.30895 18532 ft 368 kts 189°
2026-04-30 11:41 40.46037 -3.31323 19048 ft 372 kts 189°
2026-04-30 11:41 40.43482 -3.31754 19662 ft 372 kts 190°
2026-04-30 11:41 40.40895 -3.32189 20161 ft 376 kts 190°
2026-04-30 11:42 40.38298 -3.32624 20671 ft 379 kts 190°
2026-04-30 11:42 40.35677 -3.33062 21198 ft 381 kts 190°
2026-04-30 11:42 40.33049 -3.33502 21645 ft 385 kts 190°
2026-04-30 11:42 40.30396 -3.33946 22162 ft 387 kts 191°
2026-04-30 11:43 40.27723 -3.34394 22615 ft 390 kts 191°
2026-04-30 11:43 40.25035 -3.34846 23070 ft 393 kts 191°
2026-04-30 11:43 40.22326 -3.35392 23534 ft 394 kts 193°
2026-04-30 11:43 40.19601 -3.36045 24035 ft 395 kts 194°
2026-04-30 11:44 40.16912 -3.36733 24495 ft 397 kts 195°
2026-04-30 11:44 40.14206 -3.37435 24969 ft 398 kts 195°
2026-04-30 11:44 40.11498 -3.38134 25440 ft 399 kts 194°
2026-04-30 11:44 40.08742 -3.38838 25865 ft 401 kts 194°
2026-04-30 11:45 40.06013 -3.39527 26313 ft 403 kts 194°
2026-04-30 11:45 40.03228 -3.40224 26704 ft 405 kts 194°
2026-04-30 11:45 40.00466 -3.40910 27121 ft 407 kts 194°
2026-04-30 11:45 39.97657 -3.41605 27504 ft 409 kts 194°
2026-04-30 11:46 39.94859 -3.42293 27907 ft 410 kts 194°
2026-04-30 11:46 39.92068 -3.42979 28259 ft 413 kts 194°
2026-04-30 11:46 39.89217 -3.43677 28658 ft 414 kts 194°
2026-04-30 11:46 39.86368 -3.44375 29004 ft 416 kts 194°
2026-04-30 11:47 39.83528 -3.45092 29405 ft 416 kts 195°
2026-04-30 11:47 39.80741 -3.46068 29732 ft 416 kts 202°
2026-04-30 11:47 39.78117 -3.47578 30112 ft 414 kts 211°
2026-04-30 11:47 39.75687 -3.49630 30377 ft 415 kts 219°
2026-04-30 11:48 39.73474 -3.52033 30801 ft 413 kts 224°
2026-04-30 11:48 39.71411 -3.54629 31256 ft 411 kts 226°
2026-04-30 11:48 39.69432 -3.57287 31663 ft 410 kts 227°
2026-04-30 11:48 39.67454 -3.59995 32077 ft 409 kts 227°
2026-04-30 11:49 39.65498 -3.62671 32424 ft 409 kts 227°
2026-04-30 11:49 39.63530 -3.65340 32732 ft 409 kts 226°
2026-04-30 11:49 39.61553 -3.67995 33122 ft 408 kts 226°
2026-04-30 11:49 39.59571 -3.70635 33451 ft 408 kts 226°
2026-04-30 11:50 39.57601 -3.73243 33778 ft 407 kts 225°
2026-04-30 11:50 39.55597 -3.75881 34111 ft 406 kts 225°
2026-04-30 11:50 39.53621 -3.78475 34464 ft 406 kts 225°
2026-04-30 11:50 39.51626 -3.81086 34824 ft 405 kts 225°
2026-04-30 11:51 39.49643 -3.83678 35099 ft 405 kts 225°
2026-04-30 11:51 39.47666 -3.86258 35098 ft 406 kts 225°
2026-04-30 11:51 39.43691 -3.91438 35098 ft 404 kts 225°
2026-04-30 11:52 39.39707 -3.96618 35095 ft 405 kts 225°
2026-04-30 11:52 39.35720 -4.01793 35098 ft 405 kts 225°
2026-04-30 11:53 39.31744 -4.06947 35095 ft 405 kts 225°
2026-04-30 11:53 39.27748 -4.12115 35095 ft 405 kts 225°
2026-04-30 11:54 39.23799 -4.17215 35093 ft 404 kts 225°
2026-04-30 11:54 39.19810 -4.22360 35094 ft 405 kts 225°
2026-04-30 11:55 39.15852 -4.27453 35094 ft 405 kts 224°
2026-04-30 11:55 39.11865 -4.32575 35094 ft 406 kts 224°
2026-04-30 11:56 39.07854 -4.37720 35095 ft 406 kts 224°
2026-04-30 11:56 39.03832 -4.42870 35096 ft 407 kts 224°
2026-04-30 11:57 38.99837 -4.47977 35095 ft 406 kts 224°
2026-04-30 11:57 38.95844 -4.53073 35097 ft 405 kts 224°
2026-04-30 11:58 38.91839 -4.58175 35097 ft 405 kts 224°
2026-04-30 11:58 38.87819 -4.63286 35096 ft 406 kts 224°
2026-04-30 11:59 38.83783 -4.68408 35089 ft 406 kts 223°
2026-04-30 11:59 38.79769 -4.73493 35083 ft 407 kts 223°
2026-04-30 12:00 38.75718 -4.78618 35081 ft 407 kts 223°
2026-04-30 12:00 38.71711 -4.83678 35082 ft 408 kts 223°
2026-04-30 12:01 38.67664 -4.88781 35082 ft 409 kts 223°
2026-04-30 12:01 38.63605 -4.93888 35081 ft 410 kts 223°
2026-04-30 12:02 38.59551 -4.98983 35081 ft 409 kts 223°
2026-04-30 12:02 38.55497 -5.04068 35083 ft 409 kts 223°
2026-04-30 12:03 38.48991 -5.11050 35089 ft 407 kts 210°
2026-04-30 12:04 38.43982 -5.14442 35091 ft 407 kts 205°
2026-04-30 12:04 38.38881 -5.17525 35092 ft 407 kts 205°
2026-04-30 12:05 38.33760 -5.20614 35093 ft 408 kts 205°
2026-04-30 12:05 38.28661 -5.23729 35092 ft 408 kts 205°
2026-04-30 12:06 38.23533 -5.26886 35091 ft 408 kts 205°
2026-04-30 12:06 38.18442 -5.30025 35089 ft 408 kts 205°
2026-04-30 12:07 38.13341 -5.33170 35081 ft 409 kts 205°
2026-04-30 12:07 38.08230 -5.36317 35073 ft 409 kts 205°
2026-04-30 12:08 38.03090 -5.39477 35065 ft 411 kts 205°
2026-04-30 12:08 37.97937 -5.42639 35068 ft 410 kts 205°
2026-04-30 12:09 37.92802 -5.45787 35064 ft 409 kts 205°
2026-04-30 12:09 37.87691 -5.48914 35066 ft 409 kts 205°
2026-04-30 12:10 37.82576 -5.52039 35065 ft 407 kts 205°
2026-04-30 12:10 37.77480 -5.55148 35061 ft 407 kts 205°
2026-04-30 12:11 37.72411 -5.58235 35229 ft 409 kts 205°
2026-04-30 12:11 37.69833 -5.59803 35055 ft 412 kts 205°
2026-04-30 12:11 37.67263 -5.61365 35057 ft 407 kts 205°
2026-04-30 12:12 37.62198 -5.64440 35056 ft 404 kts 206°
2026-04-30 12:12 37.57092 -5.67535 35053 ft 405 kts 205°
2026-04-30 12:13 37.51981 -5.70629 35052 ft 405 kts 205°
2026-04-30 12:13 37.49463 -5.72151 34918 ft 404 kts 205°
2026-04-30 12:13 37.46928 -5.73684 35047 ft 404 kts 205°
2026-04-30 12:14 37.42023 -5.77202 35054 ft 406 kts 214°
2026-04-30 12:14 37.37601 -5.81508 35054 ft 403 kts 219°
2026-04-30 12:15 37.33319 -5.86097 35053 ft 404 kts 219°
2026-04-30 12:15 37.29051 -5.90712 35054 ft 405 kts 219°
2026-04-30 12:16 37.24771 -5.95303 35055 ft 405 kts 219°
2026-04-30 12:16 37.20478 -5.99873 35056 ft 404 kts 219°
2026-04-30 12:17 37.14061 -6.06670 35053 ft 403 kts 219°
2026-04-30 12:17 37.09729 -6.11245 35057 ft 404 kts 219°
2026-04-30 12:18 37.05444 -6.15763 35057 ft 402 kts 219°
2026-04-30 12:18 37.01179 -6.20253 35057 ft 403 kts 219°
2026-04-30 12:19 36.96897 -6.24753 35056 ft 403 kts 220°
2026-04-30 12:19 36.92570 -6.29293 35060 ft 404 kts 220°
2026-04-30 12:20 36.88264 -6.33805 35061 ft 403 kts 220°
2026-04-30 12:20 36.83977 -6.38290 35065 ft 403 kts 220°
2026-04-30 12:21 36.79681 -6.42777 35065 ft 402 kts 220°
2026-04-30 12:21 36.75412 -6.47230 35066 ft 401 kts 220°
2026-04-30 12:22 36.71124 -6.51695 35064 ft 401 kts 220°
2026-04-30 12:22 36.66837 -6.56152 35062 ft 401 kts 220°
2026-04-30 12:23 36.62560 -6.60590 35069 ft 401 kts 220°
2026-04-30 12:23 36.58279 -6.65027 35067 ft 402 kts 219°
2026-04-30 12:24 36.53985 -6.69474 35065 ft 402 kts 219°
2026-04-30 12:24 36.49673 -6.73932 35066 ft 402 kts 219°
2026-04-30 12:25 36.45372 -6.78372 35065 ft 401 kts 219°
2026-04-30 12:25 36.41103 -6.82769 35071 ft 401 kts 219°
2026-04-30 12:26 36.36804 -6.87186 35066 ft 401 kts 219°
2026-04-30 12:26 36.32473 -6.91632 35073 ft 403 kts 219°
2026-04-30 12:27 36.28183 -6.96031 35066 ft 402 kts 219°
2026-04-30 12:27 36.23873 -7.00442 35075 ft 403 kts 220°
2026-04-30 12:28 36.19553 -7.04861 35072 ft 402 kts 220°
2026-04-30 12:28 36.15246 -7.09260 35073 ft 401 kts 219°
2026-04-30 12:29 36.10952 -7.13638 35071 ft 401 kts 219°
2026-04-30 12:29 36.06641 -7.18027 35074 ft 401 kts 219°
2026-04-30 12:30 36.02319 -7.22421 35076 ft 401 kts 220°
2026-04-30 12:30 35.98015 -7.26787 35074 ft 402 kts 220°
2026-04-30 12:31 35.93703 -7.31159 35072 ft 402 kts 220°
2026-04-30 12:31 35.89368 -7.35547 35077 ft 402 kts 220°
2026-04-30 12:32 35.85049 -7.39913 35079 ft 402 kts 220°
2026-04-30 12:32 35.80727 -7.44264 35076 ft 401 kts 219°
2026-04-30 12:33 35.76398 -7.48586 35076 ft 402 kts 219°
2026-04-30 12:33 35.72063 -7.52903 35081 ft 403 kts 219°
2026-04-30 12:34 35.67679 -7.57264 35077 ft 403 kts 220°
2026-04-30 12:34 35.63337 -7.61579 35078 ft 403 kts 220°
2026-04-30 12:35 35.58961 -7.65924 35078 ft 404 kts 219°
2026-04-30 12:35 35.54601 -7.70247 35075 ft 403 kts 219°
2026-04-30 12:36 35.50248 -7.74558 35080 ft 403 kts 219°
2026-04-30 12:36 35.45872 -7.78883 35079 ft 404 kts 219°
2026-04-30 12:37 35.41472 -7.83227 35079 ft 404 kts 219°
2026-04-30 12:37 35.37113 -7.87563 35081 ft 406 kts 219°
2026-04-30 12:38 35.32731 -7.91951 35078 ft 406 kts 220°
2026-04-30 12:38 35.28374 -7.96308 35074 ft 405 kts 220°
2026-04-30 12:39 35.24021 -8.00651 35075 ft 406 kts 220°
2026-04-30 12:39 35.19635 -8.05019 35073 ft 405 kts 220°
2026-04-30 12:40 35.15283 -8.09344 35077 ft 406 kts 220°
2026-04-30 12:40 35.10894 -8.13699 35071 ft 405 kts 220°
2026-04-30 12:41 35.06525 -8.18027 35071 ft 407 kts 220°
2026-04-30 12:41 35.02111 -8.22396 35071 ft 408 kts 220°
2026-04-30 12:42 34.97698 -8.26755 35073 ft 407 kts 220°
2026-04-30 12:42 34.93314 -8.31081 35079 ft 407 kts 220°
2026-04-30 12:43 34.88893 -8.35436 35077 ft 407 kts 220°
2026-04-30 12:43 34.84500 -8.39758 35076 ft 406 kts 220°
2026-04-30 12:44 34.80125 -8.44055 35078 ft 406 kts 220°
2026-04-30 12:44 34.75708 -8.48388 35076 ft 407 kts 220°
2026-04-30 12:45 34.71299 -8.52707 35081 ft 406 kts 220°
2026-04-30 12:45 34.66903 -8.57008 35079 ft 407 kts 220°
2026-04-30 12:46 34.62501 -8.61309 35077 ft 407 kts 220°
2026-04-30 12:46 34.58081 -8.65620 35079 ft 408 kts 220°
2026-04-30 12:47 34.53667 -8.69921 35078 ft 407 kts 220°
2026-04-30 12:47 34.49254 -8.74215 35078 ft 407 kts 220°
2026-04-30 12:48 34.44834 -8.78508 35080 ft 408 kts 220°
2026-04-30 12:48 34.40378 -8.82814 35078 ft 408 kts 220°
2026-04-30 12:49 34.35948 -8.87070 35078 ft 409 kts 220°
2026-04-30 12:49 34.31488 -8.91348 35078 ft 409 kts 220°
2026-04-30 12:50 34.27041 -8.95609 35075 ft 410 kts 220°
2026-04-30 12:50 34.22565 -8.99894 35075 ft 409 kts 220°
2026-04-30 12:51 34.18122 -9.04141 35077 ft 408 kts 220°
2026-04-30 12:51 34.13644 -9.08417 35068 ft 408 kts 220°
2026-04-30 12:52 34.09183 -9.12672 35080 ft 408 kts 221°
2026-04-30 12:52 34.04722 -9.16922 35079 ft 410 kts 221°
2026-04-30 12:53 34.00241 -9.21183 35073 ft 409 kts 221°
2026-04-30 12:53 33.95752 -9.25446 35071 ft 410 kts 221°
2026-04-30 12:54 33.91272 -9.29696 35077 ft 411 kts 221°
2026-04-30 12:54 33.86758 -9.33971 35072 ft 410 kts 221°
2026-04-30 12:55 33.82275 -9.38211 35078 ft 412 kts 221°
2026-04-30 12:55 33.77766 -9.42469 35077 ft 411 kts 221°
2026-04-30 12:56 33.73285 -9.46694 35083 ft 412 kts 221°
2026-04-30 12:56 33.68776 -9.50941 35083 ft 412 kts 221°
2026-04-30 12:57 33.64245 -9.55204 35086 ft 412 kts 221°
2026-04-30 12:57 33.59755 -9.59420 35082 ft 412 kts 221°
2026-04-30 12:58 33.55240 -9.63655 35080 ft 413 kts 221°
2026-04-30 12:58 33.50716 -9.67894 35078 ft 414 kts 221°
2026-04-30 12:59 33.46166 -9.72151 35077 ft 415 kts 221°
2026-04-30 12:59 33.41635 -9.76383 35076 ft 414 kts 221°
2026-04-30 13:00 33.37089 -9.80624 35079 ft 413 kts 221°
2026-04-30 13:00 33.32553 -9.84850 35076 ft 415 kts 221°
2026-04-30 13:01 33.28032 -9.89055 35082 ft 413 kts 221°
2026-04-30 13:01 33.23481 -9.93286 35090 ft 414 kts 222°
2026-04-30 13:02 33.18912 -9.97526 35087 ft 414 kts 222°
2026-04-30 13:02 33.14380 -10.01726 35084 ft 415 kts 222°
2026-04-30 13:03 33.09812 -10.05954 35082 ft 414 kts 222°
2026-04-30 13:03 33.05272 -10.10149 35086 ft 415 kts 222°
2026-04-30 13:04 33.00689 -10.14378 35078 ft 415 kts 222°
2026-04-30 13:04 32.96119 -10.18584 35088 ft 417 kts 223°
2026-04-30 13:05 32.91544 -10.22789 35090 ft 417 kts 223°
2026-04-30 13:06 32.84641 -10.29119 35078 ft 418 kts 223°
2026-04-30 13:06 32.80027 -10.33347 35091 ft 419 kts 223°
2026-04-30 13:07 32.75397 -10.37583 35086 ft 420 kts 224°
2026-04-30 13:07 32.70778 -10.41802 35080 ft 420 kts 224°
2026-04-30 13:08 32.66139 -10.46035 35085 ft 420 kts 224°
2026-04-30 13:08 32.61520 -10.50245 35090 ft 420 kts 224°
2026-04-30 13:09 32.56877 -10.54470 35080 ft 422 kts 225°
2026-04-30 13:09 32.52187 -10.58737 35080 ft 424 kts 224°
2026-04-30 13:10 32.47539 -10.62951 35085 ft 423 kts 224°
2026-04-30 13:10 32.42852 -10.67196 35081 ft 425 kts 225°
2026-04-30 13:11 32.38134 -10.71471 35077 ft 428 kts 225°
2026-04-30 13:11 32.33436 -10.75711 35250 ft 423 kts 225°
2026-04-30 13:11 32.31094 -10.77826 35079 ft 424 kts 225°
2026-04-30 13:12 32.28764 -10.79929 35083 ft 426 kts 225°
2026-04-30 13:12 32.24025 -10.84206 35087 ft 432 kts 225°
2026-04-30 13:13 32.16811 -10.90698 35084 ft 429 kts 225°
2026-04-30 13:14 32.09676 -10.97102 35088 ft 434 kts 225°
2026-04-30 13:14 32.02458 -11.03572 35088 ft 436 kts 226°
2026-04-30 13:15 31.95262 -11.10002 35093 ft 435 kts 226°
2026-04-30 13:16 31.90427 -11.14326 35090 ft 438 kts 226°
2026-04-30 13:16 31.85583 -11.18638 35092 ft 433 kts 226°
2026-04-30 13:17 31.78412 -11.25021 35093 ft 434 kts 226°
2026-04-30 13:18 31.71154 -11.31489 35090 ft 435 kts 226°
2026-04-30 13:18 31.64007 -11.37853 35091 ft 433 kts 226°
2026-04-30 13:19 31.59195 -11.42139 35094 ft 433 kts 226°
2026-04-30 13:19 31.54418 -11.46381 35091 ft 430 kts 226°
2026-04-30 13:20 31.49658 -11.50609 35091 ft 433 kts 226°
2026-04-30 13:20 31.44860 -11.54860 35091 ft 431 kts 227°
2026-04-30 13:21 31.40083 -11.59084 35093 ft 429 kts 227°
2026-04-30 13:22 31.32925 -11.65416 35093 ft 432 kts 226°
2026-04-30 13:22 31.25770 -11.71722 35092 ft 430 kts 226°
2026-04-30 13:23 31.18596 -11.78039 35092 ft 431 kts 226°
2026-04-30 13:24 31.09034 -11.86427 35089 ft 429 kts 226°
2026-04-30 13:25 30.99454 -11.94819 35091 ft 428 kts 226°
2026-04-30 13:26 30.87534 -12.05235 35091 ft 429 kts 226°
2026-04-30 13:28 30.75683 -12.15546 35091 ft 426 kts 226°
2026-04-30 13:28 30.68549 -12.21745 35091 ft 426 kts 226°
2026-04-30 13:29 30.59064 -12.29964 35090 ft 427 kts 226°
2026-04-30 13:31 30.47245 -12.40170 35091 ft 423 kts 226°
2026-04-30 13:32 30.35428 -12.50316 35091 ft 421 kts 226°
2026-04-30 13:33 30.26015 -12.58374 35092 ft 422 kts 226°
2026-04-30 13:34 30.18943 -12.64415 35089 ft 423 kts 226°
2026-04-30 13:35 30.09458 -12.72501 35089 ft 420 kts 226°
2026-04-30 13:36 30.00137 -12.80460 35092 ft 419 kts 226°
2026-04-30 13:36 29.93093 -12.86479 35089 ft 417 kts 226°
2026-04-30 13:37 29.86074 -12.92456 35091 ft 420 kts 226°
2026-04-30 13:38 29.79055 -12.98418 35091 ft 417 kts 226°
2026-04-30 13:39 29.69677 -13.06371 35090 ft 417 kts 225°
2026-04-30 13:40 29.62700 -13.12277 35090 ft 417 kts 225°
2026-04-30 13:40 29.58038 -13.16215 35091 ft 415 kts 225°
2026-04-30 13:41 29.53358 -13.20168 35091 ft 416 kts 226°
2026-04-30 13:41 29.48695 -13.24099 35089 ft 415 kts 226°
2026-04-30 13:42 29.44064 -13.27997 35090 ft 413 kts 225°
2026-04-30 13:42 29.37107 -13.33848 35090 ft 414 kts 226°
2026-04-30 13:43 29.32459 -13.37749 35092 ft 414 kts 225°
2026-04-30 13:43 29.27791 -13.41668 35093 ft 414 kts 225°
2026-04-30 13:44 29.23174 -13.45531 35095 ft 412 kts 225°
2026-04-30 13:44 29.18524 -13.49424 35095 ft 411 kts 225°
2026-04-30 13:45 29.11803 -13.55429 35099 ft 401 kts 236°
2026-04-30 13:46 29.08050 -13.60109 35100 ft 398 kts 236°
2026-04-30 13:46 29.04279 -13.64787 35104 ft 399 kts 236°
2026-04-30 13:47 29.00513 -13.69414 35107 ft 400 kts 235°
2026-04-30 13:47 28.96719 -13.74071 35106 ft 398 kts 235°
2026-04-30 13:48 28.92938 -13.78705 35102 ft 399 kts 235°
2026-04-30 13:48 28.89158 -13.83330 35085 ft 396 kts 235°
2026-04-30 13:48 28.87297 -13.85600 34770 ft 391 kts 235°
2026-04-30 13:49 28.85459 -13.87836 34445 ft 382 kts 236°
2026-04-30 13:49 28.83662 -13.90022 34091 ft 376 kts 235°
2026-04-30 13:49 28.81887 -13.92183 33642 ft 371 kts 236°
2026-04-30 13:49 28.80120 -13.94340 33176 ft 368 kts 236°
2026-04-30 13:50 28.78380 -13.96465 32694 ft 366 kts 236°
2026-04-30 13:50 28.74934 -14.00672 31750 ft 360 kts 235°
2026-04-30 13:50 28.73231 -14.02747 31282 ft 358 kts 235°
2026-04-30 13:51 28.71558 -14.04785 30839 ft 355 kts 235°
2026-04-30 13:51 28.69877 -14.06832 30391 ft 352 kts 235°
2026-04-30 13:51 28.68216 -14.08851 29947 ft 349 kts 235°
2026-04-30 13:51 28.66566 -14.10856 29502 ft 346 kts 235°
2026-04-30 13:52 28.64932 -14.12842 29068 ft 343 kts 234°
2026-04-30 13:52 28.63306 -14.14815 28631 ft 340 kts 234°
2026-04-30 13:52 28.61679 -14.16790 28197 ft 338 kts 234°
2026-04-30 13:52 28.60088 -14.18720 27764 ft 337 kts 234°
2026-04-30 13:53 28.58484 -14.20668 27335 ft 342 kts 234°
2026-04-30 13:53 28.56826 -14.22689 26884 ft 352 kts 234°
2026-04-30 13:53 28.55152 -14.24725 26420 ft 353 kts 234°
2026-04-30 13:53 28.53479 -14.26746 25970 ft 350 kts 234°
2026-04-30 13:54 28.51826 -14.28739 25527 ft 347 kts 233°
2026-04-30 13:54 28.50166 -14.30736 25080 ft 344 kts 233°
2026-04-30 13:54 28.48534 -14.32704 24642 ft 341 kts 233°
2026-04-30 13:54 28.46928 -14.34640 24208 ft 338 kts 233°
2026-04-30 13:55 28.45320 -14.36580 23773 ft 336 kts 233°
2026-04-30 13:55 28.43718 -14.38512 23343 ft 333 kts 233°
2026-04-30 13:55 28.42154 -14.40398 22922 ft 331 kts 233°
2026-04-30 13:55 28.40581 -14.42296 22499 ft 328 kts 233°
2026-04-30 13:56 28.39015 -14.44183 22076 ft 326 kts 233°
2026-04-30 13:56 28.37483 -14.46030 21662 ft 324 kts 233°
2026-04-30 13:56 28.35933 -14.47898 21241 ft 322 kts 233°
2026-04-30 13:56 28.34413 -14.49727 20828 ft 320 kts 232°
2026-04-30 13:57 28.32889 -14.51560 20414 ft 318 kts 232°
2026-04-30 13:57 28.31375 -14.53380 20006 ft 316 kts 232°
2026-04-30 13:57 28.29864 -14.55196 19596 ft 314 kts 232°
2026-04-30 13:57 28.28371 -14.56990 19191 ft 312 kts 232°
2026-04-30 13:58 28.26902 -14.58755 18793 ft 310 kts 232°
2026-04-30 13:58 28.23949 -14.62304 17993 ft 306 kts 232°
2026-04-30 13:58 28.22508 -14.64033 17603 ft 304 kts 232°
2026-04-30 13:59 28.21042 -14.65789 17156 ft 305 kts 231°
2026-04-30 13:59 28.19581 -14.67525 16634 ft 308 kts 230°
2026-04-30 13:59 28.18095 -14.69278 16217 ft 307 kts 230°
2026-04-30 13:59 28.16612 -14.71022 15825 ft 306 kts 230°
2026-04-30 14:00 28.15141 -14.72753 15446 ft 304 kts 230°
2026-04-30 14:00 28.12238 -14.76172 14690 ft 300 kts 230°
2026-04-30 14:00 28.10803 -14.77863 14314 ft 299 kts 230°
2026-04-30 14:01 28.09352 -14.79571 13936 ft 297 kts 230°
2026-04-30 14:01 28.07931 -14.81240 13565 ft 296 kts 229°
2026-04-30 14:01 28.06511 -14.82908 13199 ft 295 kts 229°
2026-04-30 14:01 28.05075 -14.84597 12824 ft 293 kts 229°
2026-04-30 14:02 28.03665 -14.86256 12451 ft 292 kts 229°
2026-04-30 14:02 28.02279 -14.87889 12084 ft 291 kts 229°
2026-04-30 14:02 28.00864 -14.89554 11713 ft 290 kts 228°
2026-04-30 14:02 27.99470 -14.91193 11344 ft 288 kts 228°
2026-04-30 14:03 27.98091 -14.92811 10979 ft 287 kts 228°
2026-04-30 14:03 27.96707 -14.94437 10615 ft 285 kts 227°
2026-04-30 14:03 27.95397 -14.96099 10253 ft 283 kts 234°
2026-04-30 14:03 27.94500 -14.98044 9997 ft 274 kts 258°
2026-04-30 14:04 27.94520 -15.00117 9851 ft 264 kts 285°
2026-04-30 14:04 27.95351 -15.01942 9529 ft 263 kts 308°
2026-04-30 14:04 27.96644 -15.03388 9227 ft 261 kts 318°
2026-04-30 14:04 27.98030 -15.04698 8921 ft 259 kts 319°
2026-04-30 14:05 27.99425 -15.05997 8612 ft 257 kts 319°
2026-04-30 14:05 28.00787 -15.07276 8314 ft 254 kts 319°
2026-04-30 14:05 28.02132 -15.08550 8029 ft 251 kts 319°
2026-04-30 14:05 28.03488 -15.09784 7727 ft 249 kts 324°
2026-04-30 14:06 28.05055 -15.10614 7437 ft 248 kts 349°
2026-04-30 14:06 28.08347 -15.09768 6915 ft 247 kts 20°
2026-04-30 14:07 28.11564 -15.09906 6479 ft 240 kts 324°
2026-04-30 14:07 28.12721 -15.11263 6205 ft 239 kts 301°
2026-04-30 14:07 28.13418 -15.12955 5924 ft 238 kts 292°
2026-04-30 14:08 28.14561 -15.16405 5579 ft 228 kts 286°
2026-04-30 14:08 28.14703 -15.18170 5400 ft 228 kts 262°
2026-04-30 14:08 28.13774 -15.21644 4776 ft 232 kts 254°
2026-04-30 14:09 28.13314 -15.23372 4509 ft 230 kts 256°
2026-04-30 14:09 28.12891 -15.25135 4249 ft 228 kts 257°
2026-04-30 14:09 28.12072 -15.28598 3757 ft 226 kts 254°
2026-04-30 14:10 28.11463 -15.30212 3570 ft 225 kts 236°
2026-04-30 14:10 28.10288 -15.31385 3356 ft 226 kts 204°
2026-04-30 14:10 28.08791 -15.31884 3060 ft 226 kts 192°
2026-04-30 14:10 28.07274 -15.32388 2734 ft 225 kts 200°
2026-04-30 14:11 28.05839 -15.33069 2424 ft 219 kts 203°
2026-04-30 14:11 28.04479 -15.33710 2136 ft 205 kts 200°
2026-04-30 14:11 28.03186 -15.34262 1863 ft 192 kts 199°
2026-04-30 14:11 28.01970 -15.34791 1617 ft 179 kts 200°
2026-04-30 14:12 28.00853 -15.35292 1389 ft 170 kts 199°
2026-04-30 14:12 27.99785 -15.35760 1202 ft 155 kts 199°
2026-04-30 14:12 27.98796 -15.36194 968 ft 150 kts 199°
2026-04-30 14:12 27.98151 -15.36479 839 ft 148 kts 199°
2026-04-30 14:13 27.96852 -15.37046 589 ft 147 kts 198°
2026-04-30 14:13 27.95893 -15.37465 362 ft 149 kts 198°
2026-04-30 14:13 27.94942 -15.37878 201 ft 144 kts 199°
2026-04-30 14:13 27.94023 -15.38287 82 ft 134 kts 198°
2026-04-30 14:14 27.93329 -15.38595 86 ft 75 kts 201°
2026-04-30 14:14 27.92927 -15.38773 82 ft 63 kts 206°
2026-04-30 14:14 27.92541 -15.38942 94 ft 55 kts 201°
2026-04-30 14:14 27.92224 -15.39085 104 ft 43 kts 202°
2026-04-30 14:15 27.91976 -15.39195 110 ft 27 kts 202°
2026-04-30 14:15 27.91929 -15.39271 114 ft 10 kts 302°
2026-04-30 14:15 27.92007 -15.39300 115 ft 14 kts 356°
2026-04-30 14:15 27.92125 -15.39309 118 ft 19 kts 357°
2026-04-30 14:16 27.92235 -15.39279 118 ft 19 kts 21°
2026-04-30 14:16 27.92384 -15.39213 115 ft 26 kts 22°
2026-04-30 14:16 27.92545 -15.39143 108 ft 24 kts 21°
2026-04-30 14:16 27.92715 -15.39068 101 ft 25 kts 21°
2026-04-30 14:17 27.92821 -15.39023 99 ft 8 kts
2026-04-30 14:17 27.92860 -15.39071 104 ft 7 kts 292°
2026-04-30 14:17 27.92872 -15.39105 109 ft 3 kts 291°
2026-04-30 14:17 27.92902 -15.39130 112 ft 11 kts 358°
2026-04-30 14:18 27.93020 -15.39083 110 ft 24 kts 21°
2026-04-30 14:18 27.93177 -15.39013 113 ft 20 kts 21°
2026-04-30 14:18 27.93445 -15.38896 121 ft 14 kts 21°
2026-04-30 14:19 27.93511 -15.38959 122 ft 1 kts 300°
2026-04-30 14:19 27.93513 -15.38963 122 ft 1 kts 300°